sat.trackr.live / text

‹ back to catalog

LEMUR-2-JOHNNYTRUONG

NORAD 59146 · 2024-043BA

PAYLOAD ACTIVE UNKNOWN

§ Identity

Operator
Country
US
Launch date
2024-03-04
Launch site
AFWTR
Launch vehicle
Mass (kg)
RCS (m²)

Purposes: earth_obs

External: N2YO · Heavens-Above · Gunter

§ Orbital elements

Epoch: 2026-05-24T23:41:32.084160Z

Period
92.39 min
Inclination
97.5360°
Eccentricity
0.0003776
Mean motion
15.58574162 rev/d
Perigee alt
389.2 km
Apogee alt
394.3 km
Semi-major
6,769.9 km
B*
4.1939e-4
RAAN
295.2896°
Arg perigee
250.6474°
Mean anomaly
109.4374°
Rev number
12,442

§ Raw data

LEMUR-2-JOHNNYTRUONG1 59146U 24043BA  26144.98717690  .00032073  00000+0  41939-3 0  99952 59146  97.5360 295.2896 0003776 250.6474 109.4374 15.58574162124424

JSON: /api/v1/satellites/59146 · /tle

For live sub-satellite position, see the globe view (requires WebGL).

§ Visibility from observer

Set your observer location to see the next 7 days of passes ≥ 10°. The values pass through the URL so the page stays shareable.

No JS? Fill the form by hand. The geolocation button needs JavaScript.